Regional Weather Roundup
Issued by NWS Goodland, KS

Home | Current Version | Previous Version | Graphics & Text | Print | Product List | Glossary On
Versions: 1 2 3 4 5 6 7 8 9 10 11 12 13 14 15 16 17 18 19 20 21 22 23 24 25 26 27 28 29 30 31 32 33 34 35 36 37 38 39 40 41 42 43 44 45 46 47 48 49 50
000
ASUS43 KGLD 021408
RWRGLD

GOODLAND FORECAST AREA HOURLY WEATHER ROUNDUP
NATIONAL WEATHER SERVICE GOODLAND KS
800 AM MDT TUE SEP 02 2014

...OFFICIAL OBSERVATIONS...

CITY           SKY/WX    TMP DP  RH WIND       PRES   REMARKS
GOODLAND KS    CLOUDY    61  61 100 S15       30.11S FOG
HILL CITY KS   SUNNY     63  57  81 W3        30.05F
IMPERIAL NEB   PTSUNNY   56  51  84 CALM      30.10R
MCCOOK NEB     SUNNY     60  55  83 MISG      30.07S
AKRON CO         N/A     55  49  80 W7        30.11S
BURLINGTON CO  PTSUNNY   60  57  89 S12       30.13S
LIMON CO       PTSUNNY   56  47  71 CALM      30.16S
$$

...UNOFFICIAL OBSERVATIONS...

CITY           SKY/WX    TMP DP  RH WIND       PRES   REMARKS
COLBY KS       MOSUNNY   66  63  88 S12       30.10S
NORTON KS      SUNNY     64  54  68 CALM      30.05F
SHARON SPRINGS   N/A     63  62  96 CALM        N/A
KIT CARSON CO    N/A     60  57  90 CALM        N/A
YUMA CO          N/A     55  53  92 CALM        N/A
$$



USA.gov is the U.S. government's official web portal to all federal, state and local government web resources and services.